AirNav   Air Wisconsin pilot careers
 
 508 users online  

9F9 Sycamore Strip Airport
Fort Worth, Texas, USA

GOING TO FORT WORTH?


FAA INFORMATION EFFECTIVE 11 OCTOBER 2018

Location

FAA Identifier: 9F9
Lat/Long: 32-37-37.3000N / 097-21-14.4250W
32-37.621667N / 097-21.240417W
32.6270278 / -97.3540069
(estimated)
Elevation: 762 ft. / 232 m (estimated)
Variation: 07E (1985)
From city: 8 miles S of FORT WORTH, TX
Time zone: UTC -5 (UTC -6 during Standard Time)
Zip code: 76134

Airport Operations

Airport use: Open to the public
Activation date: 02/1967
Control tower: no
ARTCC: FORT WORTH CENTER
FSS: FORT WORTH FLIGHT SERVICE STATION
NOTAMs facility: FTW (NOTAM-D service available)
Attendance: 0900-1700
Pattern altitude: 1562 ft. MSL
Wind indicator: yes
Segmented circle: yes
Lights: FOR LIRL RY 17/35 CALL 817-293-0510.
Landing fee: yes, LNDG FEE FOR ALL TRANSIENT ACFT.

Airport Communications

CTAF/UNICOM: 122.8
WX AWOS-3 at FWS (4 nm SE): 120.025 (817-426-4172)
WX ASOS at FTW (12 nm N): PHONE 817-740-3346
WX ASOS at GKY (13 nm E): 127.375 (817-557-0251)
WX AWOS-3P at GPM (16 nm E): 118.475 (972-606-1433)
WX AWOS-3 at CPT (17 nm S): 119.525 (817-641-4135)

Nearby radio navigation aids

VOR radial/distance  VOR name  Freq  Var
FUZr203/18.0RANGER VORTAC115.7006E
TTTr221/21.5MAVERICK VOR/DME113.1006E
CVEr229/27.7COWBOY VOR/DME116.2006E
MQPr091/33.0MILLSAP VORTAC117.7009E
JENr037/38.6GLEN ROSE VORTAC115.0006E

Airport Services

Fuel available: 100LL
Parking: tiedowns
Airframe service: MINOR
Powerplant service: MINOR
Bottled oxygen: NONE
Bulk oxygen: NONE

Runway Information

Runway 17/35

Dimensions: 3375 x 30 ft. / 1029 x 9 m
Surface: concrete, in excellent condition
Runway edge lights: non-standard
NSTD LIRL - SINGLE GREEN THLD LGT EACH SIDE, SPACING NSTD 15 FT FM RY EDGE. 2766 FT USEABLE AT NIGHT. RY 35 THLD RELCTD 609 FT AT NIGHT.
RUNWAY 17  RUNWAY 35
Latitude: 32-37.900000N32-37.343333N
Longitude: 097-21.230833W097-21.250000W
Elevation: 760.0 ft.762.0 ft.
Gradient: 0.1%0.1%
Traffic pattern: rightleft
Runway heading: 175 magnetic, 182 true355 magnetic, 002 true
Displaced threshold: no175 ft.
Markings: basic, in good conditionbasic, in good condition
Obstructions: 30 ft. pole, 201 ft. from runway, 123 ft. right of centerline
RR/PLINE PARL & ADJ TO LNDG AREA ON WEST SIDE; RR TRACKS 71' FROM CNTRLN.
25 ft. rr, 201 ft. from runway, 100 ft. left of centerline
FENCE/RR/PLINE PARL & ADJ TO LNDG AREA ON WEST SIDE; 4' FENCE 65' FR THR & ROAD 75' FR THR.

Airport Ownership and Management from official FAA records

Ownership: Privately-owned
Owner: CONNIE AND RON GYURE
2300 CUMMINGHAM STREET
FORT WORTH, TX 76134
Phone 817-293-0510
Manager: CONNIE AND RON GYURE
2300 CUNNINGHAM ST
FORT WORTH, TX 76134
Phone 817-293-0510

Airport Operational Statistics

Aircraft based on the field: 25
Single engine airplanes: 22
Multi engine airplanes: 3
    
Aircraft operations: avg 77/month *
98% local general aviation
2% transient general aviation
* for 12-month period ending 27 July 2016

Additional Remarks

RY 17/35 7 FT WALL 76 FT EAST OF CNTRLN PARALLEL & ADJ TO RY ON 1730 FT N END OF RY.
ARPT CLSD TO TSNT ACFT EXCP 2 HRS PPR CALL 817-293-0510.
FOR CD CTC REGIONAL APCH AT 972-615-2799.

Instrument Procedures

There are no published instrument procedures at 9F9.

Some nearby airports with instrument procedures:

KFWS - Fort Worth Spinks Airport (4 nm SE)
KNFW - Fort Worth Naval Air Station JRB (Carswell Field) Airport (10 nm NW)
KFTW - Fort Worth Meacham International Airport (12 nm N)
50F - Bourland Field Airport (12 nm W)
KGKY - Arlington Municipal Airport (13 nm E)
KGPM - Grand Prairie Municipal Airport (16 nm E)
KCPT - Cleburne Regional Airport (17 nm S)
KWEA - Parker County Airport (18 nm NW)
 
Loc | Ops | Rwys | IFR | FBO | Links
Com | Nav | Svcs | Stats | Notes


 
Area around 9F9 (Sycamore Strip Airport)
 
Road maps at: MapQuest Bing Google
 
Aerial photo
WARNING: Photo may not be current or correct
Aerial photo of 9F9 (Sycamore Strip Airport)
Photo by Bill Richardson
Photo taken 08-Sep-2013
looking south.

Do you have a better or more recent aerial photo of Sycamore Strip Airport that you would like to share? If so, please send us your photo.

 
Sectional chart

 
Airport distance calculator
Flying to Sycamore Strip Airport? Find the distance to fly.

From to 9F9

Sunrise and sunset
Times for 18-Oct-2018
 Local
(UTC-5)
 Zulu
(UTC)
Morning civil twilight07:1212:12
Sunrise07:3712:37
Sunset18:5323:53
Evening civil twilight19:1700:17

Current date and time
Zulu (UTC)  18-Oct-2018 05:48:20
Local (UTC-5)  18-Oct-2018 00:48:20
 
METAR
KFWS 
5nm SE 
180535Z AUTO 00000KT 7SM OVC028 11/10 A3041 RMK AO2 T01100095
KNFW 
10nm NW 
180452Z AUTO 34007KT 10SM SCT026 OVC033 12/09 A3041 RMK AO2 SLP278 T01170094 $
KFTW 
12nm N 
180453Z 31004KT 10SM OVC030 11/10 A3040 RMK AO2 SLP292 T01060100
KGKY 
13nm E 
180453Z AUTO 30004KT 10SM SCT031 OVC048 11/11 A3039 RMK AO2 SLP289 T01110106
KGPM 
16nm E 
180535Z AUTO 24003KT 10SM OVC031 12/12 A3041 RMK AO2 T01150115
KCPT 
17nm S 
180535Z AUTO 36006KT 10SM BKN027 OVC041 10/09 A3041 RMK AO2
TAF
KNFW 
10nm NW 
1723/1823 36011KT 9999 VCSH SCT15 OVC040 QNH3035INS TEMPO 1723/1802 3200 RA BR BKN014 BECMG 1803/1805 04006KT 9999 BKN040 OVC100 QNH3038INS BECMG 1821/1823 03009KT 9999 -SHRA SCT020 OVC050 QNH3030INS AUTOMATED SENSOR METWATCH 1804 TIL 1811 T10/1723Z T16/1822Z FN20048
KFTW 
12nm N 
180304Z 1803/1824 VRB04KT P6SM -RA FEW040 OVC070 TEMPO 1803/1805 6SM -RA BR BKN045 FM180500 02010KT P6SM VCSH BKN050 OVC100 FM182300 04008KT P6SM -RA OVC025
KGKY 
13nm E 
180304Z 1803/1824 VRB04KT P6SM -RA FEW040 OVC070 TEMPO 1803/1805 6SM -RA BR BKN045 FM180500 02010KT P6SM VCSH BKN050 OVC100 FM182300 04008KT P6SM -RA OVC025
NOTAMs
Click for the latest NOTAMs
NOTAMs are issued by the DoD/FAA and will open in a separate window not controlled by AirNav.

 

 
 

FBO, Fuel Providers, and Aircraft Ground Support

  
 Business Name 
 
 Contact 
 
 Services / Description 
 
Fuel Prices
 
Comments
  
A & W Aircraft 817-293-0510
no information available

If you are affiliated with A & W Aircraft and would like to show here your services, contact info, web link, logo, and more, click here
100LL
AS $4.30 
 Updated 02-Oct-2018
 
   1 read write
AS=Assisted/Self Service
Update Fuel Prices
 

Would you like to see your business listed on this page?

 If your business provides an interesting product or service to pilots, flight crews, aircraft, or users of the Sycamore Strip Airport, you should consider listing it here.  To start the listing process, click on the button below
 
Add a business
 

Other Pages about Sycamore Strip Airport

Update a link
 
Copyright © AirNav, LLC. All rights reserved. Privacy Policy  Contact